(34176) Balamurugan = 1996 TR7 = 1998 ES17 = 2000 QT39

Discovered at Socorro on 2000-08-24 by LINEAR.
(34176) Balamurugan = 2000 QT39

Vishaal N. Balamurugan (b. 2000) was awarded second place in the 2017 Intel International Science and Engineering Fair for his biochemistry project. He attends the North Oldham High School, Goshen, Kentucky, U.S.A. [Ref: Minor Planet Circ. 110630]

Orbit

Orbit type: Main Belt

Note: WebGL enabled browser required.

epoch2023-09-13.0
epoch JD2460200.5
perihelion date2020-01-01.42525
perihelion JD2458849.92525
argument of perihelion (°)286.32468
ascending node (°)151.69567
inclination (°)7.88730
eccentricity0.1006156
perihelion distance (AU)2.4623686
Tisserand w.r.t. Jupiter3.3
ΔV w.r.t. Earth (km/sec)10.1
semimajor axis (AU)2.7378377
mean anomaly (°)293.84001
mean daily motion (°/day)0.21756660
aphelion distance (AU)3.013
period (years)4.53
P-vector [x]0.20325956
P-vector [y]0.94255121
P-vector [z]0.26510899
Q-vector [x]-0.97696059
Q-vector [y]0.17724170
Q-vector [z]0.11888394
absolute magnitude14.99
phase slope0.15
uncertainty0
referenceMPEC 2024-B149
observations used1417
oppositions20
arc length (days)9972
first opposition used1996
last opposition used2024
residual rms (arc-secs)0.71
perturbers coarse indicatorM-v
perturbers precise indicator003Ek
first observation date used1996-10-09.0
last observation date used2024-01-28.0
computer nameMPCLINUX
JD of orbit computation2456966.712560
perihelion JD uncertainty (days)1.1845E-04
argument of perihelion uncertainty (°)3.7887E-05
ascending node uncertainty (°)2.7769E-05
inclination uncertainty (°)4.4451E-06
eccentricity uncertainty 2.8445E-08
perihelion distance uncertainty (AU)7.8968E-08
Minimum Orbit Intersection Distances (in AU)
for orbit epoch: 2460200.5, reference: E2024-BE9
Mercury2.16124
Venus1.75084
Earth1.4909
Mars0.91039
Jupiter2.20204
Saturn6.5961
Uranus15.6957
Neptune27.2197

Observations

1455 total observations over interval: 1996 10 09.38592 – 2024 01 28.254126
These data are available for download (format description).

Date (UT) J2000 RA J2000 Dec Magn Location Ref
1996 10 09.38592 01 55 36.14 +01 11 33.5   691 – Steward Observatory, Kitt Peak-Spacewatch MPC 28181
1996 10 09.40680 01 55 35.18 +01 11 24.3 19.0 V 691 – Steward Observatory, Kitt Peak-Spacewatch MPC 28181
1996 10 09.42788 01 55 34.22 +01 11 15.1   691 – Steward Observatory, Kitt Peak-Spacewatch MPC 28181
1996 10 09.53350 01 55 29.61 +01 10 29.5 18.5 V 566 – Haleakala-NEAT/GEODSS MPC 27998
1996 10 09.54191 01 55 29.23 +01 10 25.8 18.6 V 566 – Haleakala-NEAT/GEODSS MPC 27998
1996 10 12.49015 01 53 16.73 +00 48 58.0 19.2 V 566 – Haleakala-NEAT/GEODSS MPC 27998
1996 10 12.49860 01 53 16.29 +00 48 54.1 19.2 V 566 – Haleakala-NEAT/GEODSS MPC 27998
1996 10 12.50703 01 53 15.87 +00 48 50.4 19.1 V 566 – Haleakala-NEAT/GEODSS MPC 27998
1996 10 14.60422 01 51 38.63 +00 33 56.2   260 – Siding Spring Observatory-DSS MPS 27849
1996 10 14.64589 01 51 36.55 +00 33 38.2   260 – Siding Spring Observatory-DSS MPS 27849
1998 02 26.35139 10 09 33.51 +11 36 22.0 18.8 V 566 – Haleakala-NEAT/GEODSS MPS 17436
1998 02 26.36114 10 09 33.03 +11 36 26.6 19.2 V 566 – Haleakala-NEAT/GEODSS MPS 17436
1998 02 26.37090 10 09 32.54 +11 36 30.9 19.1 V 566 – Haleakala-NEAT/GEODSS MPS 17436
1998 03 03.12153 10 05 49.89 +12 12 16.9 18.6   809 – European Southern Observatory, La Silla MPS 935
1998 03 03.13472 10 05 49.23 +12 12 22.6   809 – European Southern Observatory, La Silla MPS 935
1998 03 03.14792 10 05 48.65 +12 12 28.1   809 – European Southern Observatory, La Silla MPS 935
1998 03 04.13681 10 05 04.34 +12 19 41.2   809 – European Southern Observatory, La Silla MPS 935
1998 03 04.15000 10 05 03.67 +12 19 46.5   809 – European Southern Observatory, La Silla MPS 935
1998 03 04.16319 10 05 03.07 +12 19 53.0   809 – European Southern Observatory, La Silla MPS 935
1999 05 21.29937 16 20 04.44 -09 27 17.6 18.7 V 691 – Steward Observatory, Kitt Peak-Spacewatch MPS 81035
1999 05 21.32045 16 20 03.41 -09 27 14.0 19.3 V 691 – Steward Observatory, Kitt Peak-Spacewatch MPS 81035
1999 05 21.34155 16 20 02.30 -09 27 10.8 19.5 V 691 – Steward Observatory, Kitt Peak-Spacewatch MPS 81035
2000 08 21.26358 22 00 54.13 -11 20 18.8 18.8 R 699 – Lowell Observatory-LONEOS MPS 18113
2000 08 21.28402 22 00 53.06 -11 20 29.0   699 – Lowell Observatory-LONEOS MPS 18113
2000 08 21.30446 22 00 52.07 -11 20 36.0   699 – Lowell Observatory-LONEOS MPS 18113
2000 08 21.32490 22 00 51.08 -11 20 46.1   699 – Lowell Observatory-LONEOS MPS 18113
2000 08 24.26690 21 58 30.76 -11 41 40.5 18.7   704 – Lincoln Laboratory ETS, New Mexico MPS 18113
2000 08 24.27958 21 58 30.15 -11 41 46.1 19.2   704 – Lincoln Laboratory ETS, New Mexico MPS 18113
2000 08 24.29231 21 58 29.43 -11 41 50.7 19.4   704 – Lincoln Laboratory ETS, New Mexico MPS 18113
2000 08 24.30503 21 58 28.85 -11 41 57.1 19.0   704 – Lincoln Laboratory ETS, New Mexico MPS 18113
2000 08 24.31778 21 58 28.26 -11 42 02.5 19.1   704 – Lincoln Laboratory ETS, New Mexico MPS 18113
2000 08 29.30380 21 54 33.02 -12 17 05.9 18.5   704 – Lincoln Laboratory ETS, New Mexico MPS 18113
2000 08 29.31722 21 54 32.37 -12 17 11.9 18.1   704 – Lincoln Laboratory ETS, New Mexico MPS 18113
2000 08 29.33069 21 54 31.76 -12 17 16.8 18.5   704 – Lincoln Laboratory ETS, New Mexico MPS 18113
2000 09 02.20581 21 51 35.40 -12 43 46.5 18.6   704 – Lincoln Laboratory ETS, New Mexico MPS 18113
2000 09 02.21926 21 51 34.76 -12 43 51.2 19.2   704 – Lincoln Laboratory ETS, New Mexico MPS 18113
2000 09 02.23274 21 51 34.11 -12 43 58.4 19.0   704 – Lincoln Laboratory ETS, New Mexico MPS 18113
2000 09 02.24621 21 51 33.57 -12 44 03.9 18.9   704 – Lincoln Laboratory ETS, New Mexico MPS 18113
2000 09 02.28526 21 51 31.70 -12 44 20.1 18.7 V 691 – Steward Observatory, Kitt Peak-Spacewatch MPS 18113
2000 09 02.30757 21 51 30.71 -12 44 28.5 19.6 V 691 – Steward Observatory, Kitt Peak-Spacewatch MPS 18113
2000 09 02.42497 21 51 25.33 -12 45 15.6 19.0 V 691 – Steward Observatory, Kitt Peak-Spacewatch MPS 18113
2000 09 21.20519 21 40 09.83 -14 33 41.2 18.3 R 699 – Lowell Observatory-LONEOS MPS 30051
2000 09 21.22497 21 40 09.22 -14 33 46.6   699 – Lowell Observatory-LONEOS MPS 30051
2000 09 21.24477 21 40 08.70 -14 33 51.9   699 – Lowell Observatory-LONEOS MPS 30051
2000 09 21.26459 21 40 08.20 -14 33 58.5   699 – Lowell Observatory-LONEOS MPS 30051
2001 10 17.42108 06 08 26.19 +13 21 57.6 20.1   704 – Lincoln Laboratory ETS, New Mexico MPS 39146
2001 10 17.43705 06 08 26.64 +13 21 56.1 19.6   704 – Lincoln Laboratory ETS, New Mexico MPS 39146
2001 10 17.45314 06 08 27.07 +13 21 51.8 19.0   704 – Lincoln Laboratory ETS, New Mexico MPS 39146
2001 10 17.46911 06 08 27.51 +13 21 48.9 19.5   704 – Lincoln Laboratory ETS, New Mexico MPS 39146
2001 11 17.36325 06 09 48.00 +11 49 21.5 18.6   704 – Lincoln Laboratory ETS, New Mexico MPS 41802
2001 11 17.37775 06 09 47.57 +11 49 19.4 19.1   704 – Lincoln Laboratory ETS, New Mexico MPS 41802
2001 11 17.39255 06 09 47.21 +11 49 17.8 19.1   704 – Lincoln Laboratory ETS, New Mexico MPS 41802
2001 11 17.40683 06 09 46.81 +11 49 15.8 19.0   704 – Lincoln Laboratory ETS, New Mexico MPS 41802
2001 11 17.42112 06 09 46.45 +11 49 13.1 19.5   704 – Lincoln Laboratory ETS, New Mexico MPS 41802
2001 12 11.29848 05 53 04.33 +11 25 06.8 17.8   704 – Lincoln Laboratory ETS, New Mexico MPS 43372
2001 12 11.31422 05 53 03.44 +11 25 07.4 18.1   704 – Lincoln Laboratory ETS, New Mexico MPS 43372
2001 12 11.32929 05 53 02.59 +11 25 07.8 18.3   704 – Lincoln Laboratory ETS, New Mexico MPS 43372
2001 12 11.34436 05 53 01.74 +11 25 07.7 18.6   704 – Lincoln Laboratory ETS, New Mexico MPS 43372
2001 12 11.35958 05 53 00.91 +11 25 08.5 18.4   704 – Lincoln Laboratory ETS, New Mexico MPS 43372
2001 12 17.29513 05 47 29.46 +11 29 26.9 18.1   704 – Lincoln Laboratory ETS, New Mexico MPS 43372
2001 12 17.31308 05 47 28.43 +11 29 27.8 18.0   704 – Lincoln Laboratory ETS, New Mexico MPS 43372
2001 12 17.32885 05 47 27.44 +11 29 28.5 18.4   704 – Lincoln Laboratory ETS, New Mexico MPS 43372
2001 12 17.34501 05 47 26.59 +11 29 30.2 18.3   704 – Lincoln Laboratory ETS, New Mexico MPS 43372
2001 12 17.36040 05 47 25.66 +11 29 31.2 18.1   704 – Lincoln Laboratory ETS, New Mexico MPS 43372
2002 01 09.24028 05 27 56.59 +12 25 26.5 18.6   704 – Lincoln Laboratory ETS, New Mexico MPS 51175
2002 01 09.25568 05 27 55.93 +12 25 30.2 19.0   704 – Lincoln Laboratory ETS, New Mexico MPS 51175
2002 01 09.27209 05 27 55.30 +12 25 32.9 19.0   704 – Lincoln Laboratory ETS, New Mexico MPS 51175
2002 01 09.28755 05 27 54.56 +12 25 36.7 19.4   704 – Lincoln Laboratory ETS, New Mexico MPS 51175
2002 01 09.30308 05 27 54.01 +12 25 40.1 19.1   704 – Lincoln Laboratory ETS, New Mexico MPS 51175
2002 02 08.19661 05 20 35.80 +14 42 07.9 20.4   704 – Lincoln Laboratory ETS, New Mexico MPS 51175
2002 02 08.21102 05 20 36.03 +14 42 12.4 20.4   704 – Lincoln Laboratory ETS, New Mexico MPS 51175
2002 02 08.22564 05 20 36.16 +14 42 17.5 19.7   704 – Lincoln Laboratory ETS, New Mexico MPS 51175
2002 02 11.17041 05 21 18.86 +14 57 17.5 19.5   704 – Lincoln Laboratory ETS, New Mexico MPS 51175
2002 02 11.18503 05 21 19.09 +14 57 21.1 19.8   704 – Lincoln Laboratory ETS, New Mexico MPS 51175
2002 02 11.20153 05 21 19.41 +14 57 26.8 19.6   704 – Lincoln Laboratory ETS, New Mexico MPS 51175
2002 02 11.21664 05 21 19.60 +14 57 31.0 20.0   704 – Lincoln Laboratory ETS, New Mexico MPS 51175
2002 02 11.23193 05 21 19.85 +14 57 36.0 20.1   704 – Lincoln Laboratory ETS, New Mexico MPS 51175
2003 03 22.28173 13 35 02.26 -01 10 16.1 18.8   644 – Palomar Mountain/NEAT MPS 77410
2003 03 22.36867 13 34 58.87 -01 09 39.6 19.4   644 – Palomar Mountain/NEAT MPS 77410
2003 03 22.43737 13 34 56.16 -01 09 10.6 18.9   644 – Palomar Mountain/NEAT MPS 77410
2003 03 24.50563 13 33 35.94 -00 54 32.0 19.9   608 – Haleakala-AMOS MPS 77410
2003 03 24.51599 13 33 35.50 -00 54 28.3 19.4   608 – Haleakala-AMOS MPS 77410
